Location: Marcé
(47.5801°N, 0.3280°W)
Time: 19:58:27
(UTC+01:00)

S-56A Canister/Altair - All Passes

Search period start: 30 November 2021 00:00
Search period end: 10 December 2021 00:00
Orbit: 633 x 2500 km, 38.9° (Epoch: 30 November)

Date Brightness Start Highest point End Pass type
(mag) Time Alt. Az. Time Alt. Az. Time Alt. Az.
30 Nov - 00:22:09 10° S 00:25:31 13° SSE 00:28:28 10° SE night (unlit)
30 Nov - 02:22:49 10° SW 02:29:03 27° SSE 02:33:43 10° ESE night (unlit)
30 Nov - 04:26:51 10° WSW 04:32:18 33° S 04:36:34 10° ESE visible
30 Nov - 06:31:34 10° WSW 06:35:05 20° SSW 06:38:19 10° SSE visible
30 Nov - 23:49:41 10° SSE 23:52:49 12° SSE 23:55:36 10° SE night (unlit)
01 Dec - 01:49:45 10° SW 01:56:26 27° SSE 02:01:23 10° ESE night (unlit)
01 Dec - 03:53:50 10° WSW 03:59:48 35° S 04:04:19 10° ESE visible
01 Dec - 05:58:38 10° WSW 06:02:42 22° SSW 06:06:13 10° SSE visible
01 Dec - 23:17:24 10° SSE 23:20:05 11° SSE 23:22:30 10° SE night (unlit)
02 Dec - 01:16:40 10° SW 01:23:47 27° SSE 01:29:02 10° ESE night (unlit)
02 Dec - 03:20:44 10° WSW 03:27:17 36° S 03:32:05 10° ESE night (unlit)
02 Dec - 05:25:40 10° WSW 05:30:16 25° SSW 05:34:06 10° SE visible
02 Dec - 22:45:32 10° SSE 22:47:18 11° SE 22:48:59 10° SE night (unlit)
03 Dec - 00:43:33 10° SSW 00:51:05 26° SSE 00:56:39 10° ESE night (unlit)
03 Dec - 02:47:34 10° WSW 02:54:44 38° S 02:59:49 10° ESE night (unlit)
03 Dec - 04:52:37 10° WSW 04:57:51 29° SSW 05:01:58 10° SE visible
04 Dec - 00:10:25 10° SSW 00:18:20 26° SSE 00:24:14 10° ESE night (unlit)
04 Dec - 02:14:19 10° WSW 02:22:07 39° S 02:27:34 10° ESE night (unlit)
04 Dec - 04:19:31 10° WSW 04:25:23 32° SSW 04:29:50 10° SE visible
04 Dec - 06:26:04 10° SW 06:27:50 12° SW 06:29:30 10° SSW visible
04 Dec - 23:37:17 10° SSW 23:45:33 25° SSE 23:51:45 10° ESE night (unlit)
05 Dec - 01:41:01 10° WSW 01:49:28 39° S 01:55:17 10° ESE night (unlit)
05 Dec - 03:46:20 10° WSW 03:52:54 36° SSW 03:57:41 10° SE visible
05 Dec - 05:52:28 10° WSW 05:55:27 15° SW 05:58:06 10° S visible
05 Dec - 23:04:11 10° SSW 23:12:43 24° SSE 23:19:12 10° ESE visible
06 Dec - 01:07:41 10° SW 01:16:45 40° S 01:22:58 10° ESE night (unlit)
06 Dec - 03:13:04 10° WSW 03:20:21 39° S 03:25:30 10° ESE night (unlit)
06 Dec - 05:19:04 10° WSW 05:23:03 18° SSW 05:26:25 10° S visible
06 Dec - 22:31:07 10° SSW 22:39:49 23° SSE 22:46:35 10° ESE visible
07 Dec - 00:34:17 10° SW 00:43:58 40° SSE 00:50:38 10° ESE night (unlit)
07 Dec - 02:39:44 10° WSW 02:47:46 42° S 02:53:18 10° ESE night (unlit)
07 Dec - 04:45:44 10° WSW 04:50:38 22° SSW 04:54:34 10° SSE visible
07 Dec - 21:58:06 10° SSW 22:06:54 22° SSE 22:13:51 10° ESE visible
08 Dec - 00:00:53 10° SW 00:11:08 40° SSE 00:18:14 10° E night (unlit)
08 Dec - 02:06:20 10° WSW 02:15:06 44° S 02:21:04 10° ESE night (unlit)
08 Dec - 04:12:22 10° W 04:18:12 26° SSW 04:22:37 10° SSE visible
08 Dec - 21:25:11 10° S 21:33:56 21° SSE 21:41:02 10° ESE visible
08 Dec - 23:27:28 10° SW 23:38:15 39° SSE 23:45:49 10° E visible
09 Dec - 01:32:51 10° WSW 01:42:24 47° S 01:48:48 10° ESE night (unlit)
09 Dec - 03:38:59 10° W 03:45:43 30° SSW 03:50:38 10° SE night (unlit)
09 Dec - 20:52:23 10° S 21:00:57 20° SE 21:08:05 10° ESE visible
09 Dec - 22:54:04 10° SW 23:05:18 38° SSE 23:13:19 10° E visible
